Lapse_Rate
5.1 4.5 4.4 4.9 4.8 4.9 5.2 5.1 5.3 5.1 5.1 5.2 5.3 5.5 5.8 5.8 5.9 6.2 6.3 6.4 6.5 6.8 6.7 6.9 7.0 6.9 6.9 6.9 7.0 6.8 6.7 6.4 6.6 6.6 6.7 6.7 6.7 6.5 6.5 6.6 6.6 6.6 6.6 6.6
4.7 4.5 4.7 5.2 5.1 5.3 4.9 5.0 5.2 4.5 5.0 5.0 5.3 5.3 5.7 6.2 5.6 6.0 6.5 6.4 6.3 6.4 6.7 6.9 7.1 7.1 7.2 7.1 7.2 7.2 6.9 6.9 6.7 6.8 6.7 6.6 6.3 6.4 6.6 6.7 6.8 6.7 6.6 6.6
4.4 4.6 4.5 4.6 5.3 5.1 5.1 4.7 5.0 4.8 4.9 4.8 5.0 4.6 5.3 6.4 6.2 5.9 6.1 6.7 6.5 6.3 6.5 6.6 6.9 7.3 7.2 7.2 7.2 7.2 7.3 7.0 7.0 6.8 6.8 6.7 6.6 6.8 6.8 7.0 6.7 6.5 6.4 6.5
4.7 4.6 4.7 4.8 4.8 5.3 4.7 5.0 5.0 5.0 4.8 4.4 4.7 4.0 5.2 6.2 5.7 5.8 6.2 6.3 6.7 6.7 6.6 6.6 6.6 6.9 7.0 7.2 7.2 7.2 7.1 6.9 6.8 6.8 6.7 6.7 6.8 6.8 6.8 6.5 6.4 6.4 6.4 6.4
4.7 4.7 4.6 4.7 4.7 5.0 5.1 5.0 5.1 4.9 4.6 4.5 4.2 3.7 4.8 5.6 5.9 5.7 6.3 6.3 6.8 6.9 6.8 7.0 6.9 7.0 7.1 6.9 7.2 7.2 7.0 7.0 6.8 6.8 6.9 6.8 6.9 6.8 6.8 6.7 6.7 6.6 6.6 6.5
4.9 4.8 5.0 5.0 5.1 5.4 5.2 5.1 4.8 4.7 4.6 3.7 4.1 3.9 4.4 5.5 7.3 7.5 7.2 6.8 6.8 7.2 7.1 7.1 7.2 7.0 6.9 6.9 6.9 7.1 7.2 7.2 7.0 7.0 7.0 7.0 6.9 6.9 6.7 6.7 6.8 6.9 6.8 6.5
5.0 4.8 4.7 4.9 5.2 5.0 4.9 5.0 4.3 4.6 4.2 4.6 4.6 3.6 3.8 5.8 7.6 8.2 8.2 7.5 7.4 7.4 7.3 7.2 7.0 7.2 7.1 7.1 7.2 7.2 7.3 7.5 7.3 7.3 7.4 7.3 7.1 6.9 6.8 6.5 6.6 6.7 6.7 6.6
5.0 5.0 4.7 4.7 5.1 4.8 4.6 4.8 5.3 5.3 5.4 5.9 4.4 3.7 4.5 6.2 6.7 7.3 7.5 7.8 8.0 7.8 7.5 7.2 7.0 7.1 7.2 7.4 7.3 7.2 7.2 7.3 7.1 7.2 7.4 7.4 7.2 7.0 6.8 6.6 6.6 6.7 6.7 6.5
5.0 4.7 4.8 4.7 4.8 4.8 4.5 5.0 5.0 4.7 4.2 4.3 4.8 4.8 5.4 6.2 6.6 6.9 7.1 7.2 7.3 7.1 7.3 7.1 7.2 6.9 7.0 7.2 7.3 7.4 7.3 7.4 7.2 7.2 7.1 7.2 7.1 7.1 7.1 6.6 6.5 6.5 6.4 6.5
5.5 4.8 4.7 4.7 4.7 4.8 5.0 4.8 4.9 4.7 4.9 5.0 5.9 4.6 5.2 6.0 6.5 6.7 6.9 7.2 6.9 6.6 6.8 6.3 6.7 7.2 7.1 7.4 7.3 7.3 7.3 7.3 7.3 7.1 7.1 7.1 7.0 7.1 6.9 6.7 6.5 6.3 6.2 6.3
5.9 6.2 5.0 4.9 4.8 4.7 4.7 4.4 4.5 4.4 5.0 5.7 5.6 6.0 6.1 6.3 6.6 6.9 6.6 6.3 6.5 7.1 7.2 7.0 7.0 7.7 7.4 7.5 7.5 7.4 7.4 7.3 7.4 7.3 7.2 7.3 7.2 7.1 6.9 6.7 6.6 6.4 6.3 6.1
6.1 6.3 5.2 5.1 5.0 5.3 5.2 5.3 5.8 5.8 4.9 5.0 5.4 5.2 6.3 6.3 6.3 6.4 6.5 6.1 6.0 6.1 6.7 6.9 7.2 7.4 7.8 7.7 7.8 7.6 7.5 7.5 7.5 7.4 7.3 7.2 7.2 7.1 6.9 6.8 6.7 6.5 6.4 6.3
6.1 6.0 5.0 4.9 5.4 5.6 5.3 5.1 5.0 5.6 5.3 5.1 5.6 5.3 5.9 5.9 6.2 6.4 6.8 6.6 6.4 6.2 6.4 6.7 7.0 7.2 7.2 7.3 7.4 7.4 7.4 7.5 7.5 7.4 7.3 7.1 7.1 7.0 7.0 6.9 6.8 6.6 6.4 6.3
6.7 6.8 6.7 6.3 6.0 5.5 5.3 5.4 5.4 5.7 5.7 5.2 5.5 6.1 5.8 6.0 6.9 6.9 6.7 6.8 6.4 6.4 6.2 6.7 6.8 6.9 7.1 7.3 7.2 7.4 7.3 7.4 7.4 7.6 7.3 7.1 7.1 7.0 7.0 6.8 6.8 6.6 6.6 6.3
6.7 6.7 6.7 6.4 6.5 6.6 6.6 6.4 5.5 5.3 6.7 5.7 6.7 5.9 6.9 6.4 6.0 6.6 6.7 6.9 6.6 6.3 6.3 6.2 6.4 6.6 6.9 7.0 7.3 7.3 7.7 7.6 7.5 7.5 7.2 7.0 7.0 7.2 7.1 6.9 6.8 6.7 6.6 6.2
6.1 6.1 6.1 5.9 6.0 6.1 6.2 6.3 6.0 6.1 6.4 5.6 6.0 5.6 6.4 5.6 5.8 6.4 6.5 6.9 7.2 7.1 6.7 6.5 6.6 6.4 6.4 6.7 6.8 7.1 7.3 7.6 7.3 7.2 7.2 7.1 7.2 7.2 7.2 7.2 6.9 6.6 6.4 6.2
5.7 6.0 6.1 5.9 5.9 5.8 5.7 5.9 6.1 6.2 6.4 6.7 5.8 7.3 7.1 5.8 5.8 6.0 6.0 6.1 6.4 6.7 6.5 6.2 6.8 6.7 6.3 6.5 6.8 6.9 7.3 7.5 7.9 7.5 7.3 7.2 7.3 7.3 7.2 7.0 6.8 6.4 5.7 6.2
6.6 6.3 6.3 5.7 5.7 5.6 6.1 6.1 6.4 6.4 6.7 6.4 6.2 6.4 6.2 6.2 5.9 5.5 5.6 5.9 6.2 6.6 6.7 6.4 6.5 6.8 6.3 6.3 6.5 6.8 7.3 7.5 7.6 7.9 7.5 7.4 7.3 7.1 7.0 6.9 6.8 6.3 6.5 6.3
6.3 6.1 6.0 5.3 5.4 5.9 5.6 5.6 6.1 6.1 6.6 6.5 6.3 6.2 6.1 6.4 5.8 6.3 6.6 6.2 6.0 6.3 6.6 6.7 6.5 6.6 6.6 6.9 7.3 7.2 7.2 7.5 7.4 7.5 7.9 7.6 7.1 6.9 6.9 6.9 6.8 6.8 6.6 6.2
6.3 6.1 6.3 5.6 5.4 5.3 6.0 6.2 6.3 6.3 5.8 7.3 7.1 6.9 6.7 6.3 6.4 6.7 6.2 6.0 6.0 6.0 6.4 6.5 6.8 7.0 7.0 7.3 7.5 7.7 7.9 7.8 7.8 7.8 7.4 7.5 7.2 7.6 7.5 7.2 6.8 6.7 6.4 6.5
5.1 5.1 5.4 5.6 5.5 5.6 5.8 5.9 6.2 6.1 7.2 7.6 7.2 7.0 6.9 6.9 6.7 6.6 6.6 6.4 6.5 6.5 6.5 6.8 7.2 7.5 7.5 7.5 7.6 7.8 8.1 8.2 7.9 8.0 8.0 8.1 8.1 7.8 7.6 7.3 7.1 6.9 6.8 6.5
5.4 5.2 5.0 5.1 5.2 5.5 5.8 6.5 7.0 7.5 7.6 7.4 7.1 7.0 7.0 6.8 6.7 6.6 6.8 6.9 7.0 7.1 7.0 7.0 7.0 7.3 7.3 7.3 7.5 7.7 7.7 7.6 7.6 7.7 7.9 8.3 8.3 8.0 7.8 7.7 7.5 7.6 7.4 7.4
6.1 6.2 6.0 5.9 5.6 6.6 6.7 6.8 6.9 7.0 7.0 7.1 6.8 7.0 7.0 6.9 6.7 6.7 6.6 6.8 7.2 7.3 7.2 7.1 7.1 7.2 7.3 7.5 7.8 7.8 7.7 7.7 7.5 7.5 7.9 8.0 8.2 8.0 7.7 7.4 7.4 7.5 7.7 7.6
6.6 6.7 6.3 6.3 6.1 6.8 6.6 6.8 7.1 7.0 6.7 6.8 6.8 6.7 6.7 6.9 6.8 6.6 6.7 6.7 6.8 6.9 6.9 6.9 7.0 7.0 7.1 7.1 7.2 7.4 7.4 7.5 7.5 7.6 7.6 7.7 7.7 7.7 7.8 7.8 7.7 7.4 7.2 6.9
6.9 6.5 6.1 6.3 6.3 6.9 6.8 6.8 6.9 7.1 7.0 7.0 7.0 6.8 6.9 6.9 6.8 6.9 7.0 6.9 7.0 7.1 7.1 7.1 7.1 7.2 7.2 7.3 7.4 7.3 7.3 7.4 7.5 7.9 8.2 8.2 8.2 8.2 8.1 8.0 7.6 7.2 6.7 6.3
6.9 6.7 6.7 6.8 6.9 6.5 6.8 6.7 6.6 6.9 7.1 6.9 6.9 7.0 6.9 6.6 6.9 7.1 7.3 7.1 7.2 7.3 7.5 7.5 7.5 7.5 7.5 7.4 7.3 7.3 7.3 7.4 7.4 7.5 7.4 7.5 7.6 7.7 7.7 7.7 7.6 7.2 6.5 6.2
Wind_Speed
8 8 20 21 17 11 15 15 19 9 5 8 20 22 21 19 11 13 13 14 15 16 15 17 16 16 16 15 16 16 16 15 11 9 9 8 9 8 9 13 13 14 13 14
7 20 19 15 16 14 10 14 14 6 3 6 12 18 21 23 22 16 16 15 17 14 16 17 18 19 18 18 17 17 17 16 14 11 10 8 9 9 11 15 14 14 14 14
18 12 11 15 13 10 11 18 15 5 5 1 3 14 24 26 26 24 19 18 14 18 19 17 18 20 19 20 19 18 18 18 16 16 10 9 8 6 7 7 6 13 16 16
11 11 17 14 18 17 8 4 7 10 5 4 7 8 16 17 23 24 20 18 18 18 19 18 19 21 21 20 18 18 19 19 17 18 14 17 12 11 8 9 8 11 16 17
10 17 19 21 19 18 3 9 8 4 4 2 5 5 10 11 17 18 25 22 21 20 20 21 22 21 21 18 19 17 19 19 19 18 18 14 15 11 10 9 10 9 13 16
4 1 10 10 13 18 16 12 13 7 3 5 12 10 16 15 17 15 19 21 21 21 20 21 20 16 18 16 17 15 19 20 21 20 21 20 19 16 11 10 8 6 6 7
5 8 1 9 12 17 8 11 3 2 4 8 2 13 21 11 17 19 19 19 18 18 18 19 19 18 17 19 20 18 21 22 22 21 21 20 20 20 18 15 10 11 6 3
12 7 10 5 8 8 7 8 6 9 7 6 2 10 5 13 18 18 14 14 12 16 14 16 19 18 19 21 19 19 20 20 20 20 21 18 20 13 13 15 11 11 10 8
15 6 2 4 7 16 5 5 3 4 2 1 6 7 10 16 14 11 16 18 16 14 12 14 15 16 16 16 18 21 19 19 19 21 17 18 17 18 15 17 14 10 10 8
13 7 1 4 6 5 13 13 5 2 5 7 9 7 9 11 13 16 14 16 17 17 11 11 10 11 11 11 13 15 17 19 19 19 17 14 15 14 14 12 13 14 11 13
15 6 3 6 5 9 7 6 2 1 3 5 5 7 4 8 10 9 7 6 9 11 11 10 9 9 10 10 12 15 16 19 16 15 15 14 12 12 12 10 12 13 11 13
4 6 7 3 1 6 4 9 9 7 6 5 5 12 5 3 3 3 8 9 8 7 9 8 9 9 10 13 13 13 13 14 14 15 14 11 10 10 10 10 11 12 13 12
10 6 7 4 3 3 9 10 12 5 1 8 6 10 1 5 3 3 4 8 9 9 7 7 7 8 10 10 11 11 11 12 11 12 14 9 8 10 12 11 10 12 13 14
7 5 8 12 9 12 7 17 17 15 5 17 16 29 18 9 7 2 3 9 12 6 7 8 7 8 9 8 9 9 10 9 9 10 12 12 12 11 9 10 11 12 13 13
6 5 6 4 11 11 16 21 19 21 30 14 29 26 27 21 20 20 10 9 8 8 8 7 9 9 9 10 10 9 8 8 9 9 10 11 8 8 8 9 10 11 12 12
3 5 8 3 10 8 7 19 25 29 29 25 28 24 19 10 5 9 11 9 10 9 9 8 9 9 10 12 11 10 11 12 11 11 11 10 7 7 8 9 9 9 9 10
11 6 6 7 9 7 5 20 23 22 23 25 20 32 12 10 11 15 15 11 13 11 10 11 11 10 11 13 12 13 12 10 11 9 7 7 8 9 10 9 9 11 11 11
15 6 2 4 4 7 1 2 19 24 18 24 20 24 16 16 15 14 16 18 19 12 12 12 11 9 10 10 12 10 8 9 9 8 7 6 8 8 8 11 11 10 8 11
11 7 4 6 10 5 8 6 9 13 16 21 23 26 23 22 14 22 22 16 16 16 12 12 9 5 6 9 11 10 9 7 7 8 9 9 9 9 9 10 10 9 10 8
8 8 5 4 6 9 1 1 2 10 8 16 21 22 20 11 8 15 7 1 6 8 7 7 5 3 5 7 9 9 10 10 11 11 11 11 11 11 12 11 11 8 8 8
9 7 11 4 5 4 6 4 6 6 4 2 4 12 10 11 10 3 6 5 6 7 10 5 2 2 3 5 7 8 7 10 8 8 9 10 10 10 11 11 7 10 9 9
10 8 6 3 6 12 7 6 9 2 3 2 2 1 3 5 2 3 6 7 9 11 12 10 3 2 3 5 7 6 8 4 5 7 8 9 10 8 9 12 10 10 11 10
5 6 6 10 6 2 10 3 2 2 3 1 2 2 2 2 5 6 7 8 8 9 9 8 7 4 2 2 3 5 4 6 7 6 6 8 8 8 9 11 11 9 9 9
3 2 4 4 5 4 6 3 3 2 4 3 2 2 3 3 4 6 6 7 8 7 8 7 7 6 5 3 2 2 5 7 9 9 8 8 9 9 9 7 8 9 9 9
1 9 6 2 1 2 3 3 6 6 7 8 8 8 9 5 7 7 5 7 7 6 6 6 7 6 6 5 3 2 2 4 6 6 6 7 6 8 8 6 7 7 7 9
2 2 6 4 4 3 3 7 6 8 8 7 7 8 9 10 9 7 7 7 7 7 7 7 8 7 7 6 5 5 2 1 5 5 6 6 6 6 6 7 6 6 8 8
Wind_Direction
177 187 204 193 198 229 199 204 211 215 130 208 228 238 254 259 261 264 244 240 229 219 215 210 209 205 199 197 196 196 197 202 192 194 199 201 206 210 212 210 209 198 195 191
160 218 202 196 199 213 177 198 207 130 106 217 244 263 256 257 253 253 257 242 231 223 216 212 210 209 204 200 201 199 202 199 200 196 201 206 209 216 212 211 211 202 198 197
196 195 173 178 191 191 193 206 193 188 138 282 321 271 261 256 249 248 252 249 236 220 219 209 210 213 209 210 205 205 200 203 201 204 200 205 211 215 211 212 200 208 196 198
220 179 177 195 196 190 186 217 151 135 145 224 189 284 260 250 244 229 239 234 227 220 223 213 209 211 213 212 210 208 207 204 204 202 202 202 205 208 206 206 198 196 205 203
181 175 184 192 198 189 136 152 134 138 114 11 206 257 262 241 246 237 233 236 229 221 218 212 208 208 211 209 208 207 209 209 205 204 208 209 211 214 210 209 194 189 195 208
108 360 171 177 177 166 125 89 62 53 75 245 218 212 263 239 239 243 238 229 226 221 219 221 215 203 208 208 208 206 208 210 208 206 207 212 214 212 212 209 191 185 188 167
141 159 112 163 105 142 130 146 105 181 197 245 329 220 247 260 244 240 236 228 223 222 216 218 210 202 204 205 206 205 207 212 212 210 209 211 215 218 216 214 200 172 168 173
173 178 171 167 161 165 153 171 168 200 213 229 64 238 246 252 259 259 255 256 249 229 226 215 210 208 207 204 202 201 206 211 208 208 211 209 211 214 216 215 203 195 185 180
177 162 132 131 152 148 158 186 69 106 46 221 224 277 251 262 257 261 253 247 250 245 228 217 219 218 217 208 206 203 202 208 208 209 212 212 211 214 211 214 208 196 172 154
159 121 135 129 97 45 182 149 155 123 195 243 240 265 257 287 272 232 243 244 251 254 238 234 231 225 227 223 219 213 209 207 206 209 209 209 207 210 213 205 191 181 165 152
165 124 124 143 191 166 143 173 100 165 236 240 282 266 205 269 284 306 284 288 277 269 262 254 234 235 230 209 204 211 213 210 207 206 206 204 200 202 204 192 180 179 158 158
124 112 131 103 271 166 143 164 177 194 191 250 310 254 177 198 338 274 301 297 294 294 309 300 264 224 216 216 206 206 205 206 203 201 200 197 183 174 172 179 173 162 163 162
170 125 116 101 62 317 210 195 204 196 81 206 202 261 84 225 192 168 293 329 337 332 316 291 280 263 252 234 215 199 193 196 193 194 198 176 176 173 180 174 165 165 158 160
140 156 177 186 190 138 184 194 197 200 199 229 228 259 236 241 240 299 336 334 322 315 308 302 273 250 245 239 221 204 194 191 184 190 195 195 185 185 175 171 167 163 161 164
156 133 131 93 147 153 192 195 188 201 225 213 238 243 251 255 266 287 302 297 300 308 300 287 273 252 234 226 207 198 193 186 188 190 198 202 179 166 160 160 166 160 164 165
151 134 144 74 151 157 170 202 198 208 225 232 249 266 263 247 310 274 276 268 288 288 298 281 266 250 239 218 220 200 198 181 182 195 197 180 164 146 154 151 155 149 148 152
161 138 142 165 163 142 266 209 201 210 218 224 234 241 250 270 259 259 266 261 246 263 273 286 271 242 230 226 202 207 202 179 181 181 159 158 161 163 158 146 144 155 159 150
155 119 93 138 145 208 176 27 203 204 213 221 245 258 260 258 261 263 264 268 277 250 250 269 275 252 228 221 209 194 187 185 168 161 160 156 161 157 152 153 159 151 150 152
181 144 119 154 204 309 271 177 162 185 239 228 237 252 257 257 269 272 252 253 262 277 276 258 285 248 231 212 213 188 173 171 165 170 167 169 168 162 157 159 156 146 149 146
168 196 153 164 183 217 213 110 233 165 283 213 217 239 243 245 255 260 300 317 315 323 304 277 264 193 200 223 204 197 184 177 189 181 174 167 166 165 168 163 160 152 154 142
164 183 204 183 218 262 234 163 167 150 214 133 212 245 249 215 234 345 7 23 7 343 347 354 336 283 224 186 172 199 207 203 193 162 152 158 166 167 165 156 150 148 142 138
162 157 183 179 212 243 157 122 188 168 90 116 117 74 180 230 292 345 25 18 14 360 353 0 350 230 177 158 166 186 203 157 141 158 160 159 160 159 160 158 151 150 149 147
165 179 167 194 192 187 181 128 128 89 95 101 106 44 25 70 51 42 24 20 20 16 357 358 354 335 18 143 188 185 173 144 145 161 166 158 155 155 162 160 154 152 157 160
178 161 163 136 210 184 173 121 120 94 107 94 62 73 64 83 53 72 48 27 28 15 6 350 360 4 356 360 337 270 172 157 154 160 166 162 157 156 159 162 166 164 170 169
132 146 145 253 304 56 190 170 151 118 97 91 64 41 28 43 48 27 41 34 22 13 9 11 12 7 2 343 323 323 187 159 148 147 153 164 171 170 162 166 170 178 183 184
9 124 193 199 135 134 112 155 140 116 100 84 87 72 52 39 35 37 27 26 19 11 7 18 11 6 1 360 353 347 341 143 137 148 159 168 167 167 162 156 134 122 147 160